When you browse on this site, cookies collect data to enhance your experience and personalize the content and advertising you see.
Visit our Privacy Policy to learn more. By continuing to use the site, you agree to this use of cookies and data.
  • en Suisse
  • Liste des pays
  • À 7 jours
  • Température de l'eau
  • Carte météo
  • Widgets météo
  • user-avatar
    Se connecter

    Météo par heure à Tacoma

    Ce jour, 9 Décembre, Lundi

    Heure Température Précipitation Vent Pression Humidité
    00:00 -10°C° 0 mm 2 m/s 617 mmHg 88%
    01:00 -10°C° 0 mm 3 m/s 617 mmHg 88%
    02:00 -10°C° 0 mm 3 m/s 617 mmHg 88%
    03:00 -10°C° 0 mm 3 m/s 617 mmHg 88%
    04:00 -12°C° 0 mm 3 m/s 617 mmHg 88%
    05:00 -12°C° 0 mm 3 m/s 617 mmHg 88%
    06:00 -12°C° 0 mm 3 m/s 617 mmHg 88%
    07:00 -13°C° 0 mm 3 m/s 617 mmHg 88%
    08:00 -13°C° 0 mm 3 m/s 617 mmHg 88%
    09:00 -10°C° 0 mm 3 m/s 617 mmHg 86%
    10:00 -9°C° 0 mm 3 m/s 618 mmHg 83%
    11:00 -8°C° 0 mm 3 m/s 619 mmHg 81%
    12:00 -7°C° 0 mm 3 m/s 618 mmHg 79%
    13:00 -6°C° 0 mm 2 m/s 618 mmHg 78%
    14:00 -5°C° 0 mm 2 m/s 618 mmHg 77%
    15:00 -6°C° 0 mm 2 m/s 618 mmHg 81%
    16:00 -8°C° 0 mm 2 m/s 618 mmHg 84%
    17:00 -8°C° 0 mm 1 m/s 617 mmHg 88%
    18:00 -9°C° 0 mm 1 m/s 617 mmHg 90%
    19:00 -9°C° 0 mm 1 m/s 618 mmHg 92%
    20:00 -10°C° 0 mm 1 m/s 618 mmHg 94%
    21:00 -10°C° 0 mm 1 m/s 618 mmHg 92%
    22:00 -12°C° 0 mm 2 m/s 618 mmHg 90%
    23:00 -10°C° 0 mm 2 m/s 618 mmHg 89%

    Demain, 10 Décembre, Mardi

    Heure Température Précipitation Vent Pression Humidité
    00:00 -10°C° 0 mm 2 m/s 618 mmHg 89%
    01:00 -12°C° 0 mm 3 m/s 617 mmHg 88%
    02:00 -12°C° 0 mm 3 m/s 617 mmHg 88%
    03:00 -12°C° 0 mm 3 m/s 617 mmHg 88%
    04:00 -10°C° 0 mm 3 m/s 617 mmHg 88%
    05:00 -10°C° 0 mm 3 m/s 617 mmHg 88%
    06:00 -10°C° 0 mm 3 m/s 617 mmHg 88%
    07:00 -10°C° 0 mm 3 m/s 617 mmHg 88%
    08:00 -9°C° 0 mm 3 m/s 617 mmHg 88%
    09:00 -8°C° 0 mm 3 m/s 617 mmHg 85%
    10:00 -8°C° 0 mm 4 m/s 618 mmHg 82%
    11:00 -7°C° 0 mm 4 m/s 618 mmHg 79%
    12:00 -5°C° 0 mm 4 m/s 618 mmHg 76%
    13:00 -4°C° 0 mm 4 m/s 618 mmHg 72%
    14:00 -3°C° 0 mm 4 m/s 617 mmHg 69%
    15:00 -4°C° 0 mm 4 m/s 617 mmHg 69%
    16:00 -5°C° 0 mm 4 m/s 617 mmHg 69%
    17:00 -7°C° 0 mm 4 m/s 617 mmHg 70%
    18:00 -7°C° 0 mm 4 m/s 617 mmHg 70%
    19:00 -7°C° 0 mm 4 m/s 617 mmHg 70%
    20:00 -6°C° 0 mm 3 m/s 617 mmHg 70%
    21:00 -6°C° 0 mm 3 m/s 617 mmHg 71%
    22:00 -6°C° 0 mm 3 m/s 617 mmHg 72%
    23:00 -6°C° 0 mm 3 m/s 617 mmHg 73%

    Après-demain, 11 Décembre, Mercredi

    Heure Température Précipitation Vent Pression Humidité
    00:00 -6°C° 0 mm 3 m/s 616 mmHg 74%
    01:00 -7°C° 0 mm 3 m/s 616 mmHg 74%
    02:00 -7°C° 0 mm 3 m/s 616 mmHg 75%
    03:00 -8°C° 0 mm 4 m/s 616 mmHg 76%
    04:00 -8°C° 0 mm 4 m/s 615 mmHg 76%
    05:00 -8°C° 0 mm 4 m/s 615 mmHg 77%
    06:00 -8°C° 0 mm 4 m/s 615 mmHg 79%
    07:00 -8°C° 0 mm 4 m/s 615 mmHg 80%
    08:00 -9°C° 0 mm 4 m/s 615 mmHg 82%
    09:00 -7°C° 0 mm 4 m/s 616 mmHg 80%
    10:00 -5°C° 0 mm 4 m/s 617 mmHg 78%
    11:00 -3°C° 0 mm 4 m/s 618 mmHg 76%
    12:00 -3°C° 0 mm 4 m/s 618 mmHg 75%
    13:00 -2°C° 0 mm 4 m/s 618 mmHg 75%
    14:00 -2°C° 0 mm 4 m/s 618 mmHg 75%
    15:00 -3°C° 0 mm 4 m/s 618 mmHg 78%
    16:00 -5°C° 0 mm 3 m/s 617 mmHg 81%
    17:00 -6°C° 0 mm 3 m/s 617 mmHg 84%
    18:00 -6°C° 0 mm 3 m/s 617 mmHg 85%
    19:00 -6°C° 0 mm 3 m/s 617 mmHg 86%
    20:00 -7°C° 0 mm 3 m/s 617 mmHg 87%
    21:00 -7°C° 0 mm 3 m/s 617 mmHg 86%
    22:00 -8°C° 0 mm 4 m/s 617 mmHg 85%
    23:00 -8°C° 0 mm 4 m/s 617 mmHg 84%

    12 Décembre, Jeudi

    Heure Température Précipitation Vent Pression Humidité
    00:00 -7°C° 0 mm 4 m/s 617 mmHg 84%
    01:00 -7°C° 0 mm 4 m/s 616 mmHg 84%
    02:00 -7°C° 0 mm 4 m/s 616 mmHg 84%
    03:00 -7°C° 0 mm 4 m/s 616 mmHg 83%
    04:00 -7°C° 0 mm 5 m/s 616 mmHg 82%
    05:00 -8°C° 0 mm 6 m/s 615 mmHg 81%
    06:00 -8°C° 0 mm 6 m/s 615 mmHg 81%
    07:00 -7°C° 0 mm 5 m/s 615 mmHg 81%
    08:00 -7°C° 0 mm 5 m/s 615 mmHg 81%
    09:00 -6°C° 0 mm 6 m/s 615 mmHg 79%
    10:00 -5°C° 0 mm 6 m/s 615 mmHg 77%
    11:00 -3°C° 0 mm 6 m/s 615 mmHg 75%
    12:00 -3°C° 0.1 mm 7 m/s 615 mmHg 75%
    13:00 -2°C° 0.1 mm 7 m/s 615 mmHg 75%
    14:00 -2°C° 0.1 mm 7 m/s 614 mmHg 75%
    15:00 -3°C° 0.1 mm 6 m/s 614 mmHg 78%
    16:00 -4°C° 0.1 mm 6 m/s 614 mmHg 80%
    17:00 -4°C° 0.1 mm 5 m/s 614 mmHg 83%
    18:00 -5°C° 0.1 mm 5 m/s 613 mmHg 83%
    19:00 -5°C° 0.1 mm 5 m/s 613 mmHg 84%
    20:00 -4°C° 0.1 mm 4 m/s 613 mmHg 84%
    21:00 -5°C° 0.4 mm 6 m/s 613 mmHg 81%
    22:00 -5°C° 0.4 mm 8 m/s 614 mmHg 79%
    23:00 -5°C° 0.4 mm 9 m/s 614 mmHg 77%

    13 Décembre, Vendredi

    Heure Température Précipitation Vent Pression Humidité
    00:00 -7°C° 0.1 mm 10 m/s 614 mmHg 75%
    01:00 -7°C° 0.1 mm 11 m/s 614 mmHg 74%
    02:00 -8°C° 0.1 mm 11 m/s 615 mmHg 73%
    03:00 -8°C° 0 mm 11 m/s 615 mmHg 73%
    04:00 -8°C° 0 mm 10 m/s 615 mmHg 73%
    05:00 -8°C° 0 mm 10 m/s 616 mmHg 73%
    06:00 -9°C° 0 mm 9 m/s 616 mmHg 74%
    07:00 -8°C° 0 mm 8 m/s 616 mmHg 75%
    08:00 -8°C° 0 mm 8 m/s 616 mmHg 76%
    09:00 -8°C° 0 mm 8 m/s 616 mmHg 74%
    10:00 -7°C° 0 mm 8 m/s 616 mmHg 72%
    11:00 -6°C° 0 mm 8 m/s 616 mmHg 70%
    12:00 -5°C° 0 mm 6 m/s 616 mmHg 71%
    13:00 -4°C° 0 mm 4 m/s 616 mmHg 71%
    14:00 -4°C° 0 mm 3 m/s 615 mmHg 71%
    15:00 -4°C° 0 mm 2 m/s 615 mmHg 75%
    16:00 -5°C° 0 mm 2 m/s 614 mmHg 79%
    17:00 -6°C° 0 mm 2 m/s 613 mmHg 83%
    18:00 -6°C° 0 mm 2 m/s 613 mmHg 84%
    19:00 -6°C° 0 mm 2 m/s 613 mmHg 85%
    20:00 -4°C° 0 mm 1 m/s 613 mmHg 86%
    21:00 -4°C° 0.2 mm 1 m/s 613 mmHg 88%
    22:00 -6°C° 0.2 mm 1 m/s 613 mmHg 89%
    23:00 -6°C° 0.2 mm 1 m/s 612 mmHg 91%

    14 Décembre, Samedi

    Heure Température Précipitation Vent Pression Humidité
    00:00 -6°C° 0 mm 1 m/s 612 mmHg 92%
    01:00 -7°C° 0 mm 1 m/s 612 mmHg 93%
    02:00 -7°C° 0 mm 1 m/s 612 mmHg 94%
    03:00 -7°C° 0 mm 1 m/s 612 mmHg 94%
    04:00 -8°C° 0 mm 1 m/s 612 mmHg 94%
    05:00 -8°C° 0 mm 0 m/s 612 mmHg 94%
    06:00 -8°C° 0 mm 0 m/s 612 mmHg 93%
    07:00 -8°C° 0 mm 0 m/s 612 mmHg 92%
    08:00 -8°C° 0 mm 0 m/s 612 mmHg 91%
    09:00 -7°C° 0 mm 1 m/s 613 mmHg 88%
    10:00 -6°C° 0 mm 1 m/s 613 mmHg 85%
    11:00 -4°C° 0 mm 1 m/s 614 mmHg 82%
    12:00 -4°C° 0 mm 1 m/s 614 mmHg 80%
    13:00 -3°C° 0 mm 1 m/s 614 mmHg 78%
    14:00 -3°C° 0 mm 1 m/s 614 mmHg 77%
    15:00 -4°C° 0 mm 1 m/s 613 mmHg 79%
    16:00 -6°C° 0 mm 1 m/s 613 mmHg 82%
    17:00 -7°C° 0 mm 1 m/s 613 mmHg 85%
    18:00 -8°C° 0 mm 1 m/s 613 mmHg 85%
    19:00 -8°C° 0 mm 1 m/s 613 mmHg 85%
    20:00 -8°C° 0 mm 1 m/s 614 mmHg 86%
    21:00 -9°C° 0 mm 1 m/s 614 mmHg 86%
    22:00 -9°C° 0 mm 1 m/s 614 mmHg 86%
    23:00 -9°C° 0 mm 1 m/s 614 mmHg 86%
    Voir plus